Lid_Strength_Index
5 3 0 -0 -0 0 -0 0 -0 -0 0 1 -0 0 0 0 -0 -1 -1 -1 -1 -1 -1 -0 0 1 0 1 1 1 2 2 3 2 1 1 0 1 0 -0 0 1 -1
4 3 -0 -0 -0 -0 0 -0 0 0 1 0 0 0 0 0 -1 -1 0 -0 0 -1 -0 0 0 0 0 0 1 1 2 2 2 1 1 2 1 -0 0 1 0 1 -0
4 2 1 -0 -1 -0 0 -0 1 0 -0 0 1 1 0 -0 -1 0 0 0 -0 0 -0 -0 -0 -0 -0 0 1 1 2 3 2 2 1 5 4 1 1 1 1 1 0
3 2 2 -1 -0 -0 -0 0 1 0 1 1 1 1 0 -0 -0 0 0 0 -0 -0 -0 -0 -0 -0 -0 -0 1 1 2 3 3 2 5 4 4 -1 0 0 0 0 1
3 2 1 -0 -0 -0 0 0 0 1 1 1 1 1 1 0 0 0 0 0 0 0 0 0 0 0 0 -0 1 1 1 2 3 6 6 5 5 1 -0 0 1 0 -0
3 2 1 -0 -0 0 0 0 1 1 1 1 2 2 1 1 1 1 0 0 0 0 0 1 1 1 1 1 1 1 2 3 3 8 6 5 5 0 0 -0 0 -0 0
4 3 2 -0 -0 0 0 0 1 1 1 2 2 2 1 1 1 1 1 1 1 1 1 1 1 1 1 1 1 1 2 3 7 6 5 5 4 -1 -1 -0 -1 -0 -1
4 3 3 1 0 1 1 1 1 1 2 3 3 2 1 2 2 1 1 1 1 1 1 2 2 2 2 2 2 2 2 3 5 6 5 5 0 -1 -1 -1 -0 -0 -0
4 4 4 4 3 1 1 1 2 2 3 4 4 3 3 3 2 3 2 2 2 2 2 2 3 3 3 2 2 3 3 3 8 6 5 5 0 -0 -1 -0 -0 0 1
6 5 5 5 5 5 4 2 3 4 4 5 5 4 4 4 4 4 4 3 3 3 3 3 3 3 3 3 3 3 4 4 8 7 7 4 1 0 -0 0 0 0 0
8 8 6 6 6 6 5 4 3 4 5 5 6 5 6 7 8 7 5 5 4 4 4 3 3 4 4 4 4 4 5 10 8 8 7 2 2 1 1 1 1 1 1
10 10 9 10 9 6 4 7 7 7 8 8 9 10 10 10 10 7 6 5 5 4 4 4 4 4 6 9 9 6 10 10 9 8 7 3 2 1 1 1 1 1 1
10 9 9 9 9 8 8 8 9 9 10 10 10 10 10 10 10 9 9 10 10 6 9 8 9 9 10 10 10 10 10 10 10 8 6 4 3 2 2 2 2 2 2
10 9 9 9 9 9 9 9 9 9 10 10 10 9 10 10 11 11 10 10 10 10 10 10 10 10 10 10 10 10 11 11 11 10 9 4 3 3 3 2 2 2 2
10 9 9 9 9 9 9 9 10 10 10 10 10 9 10 10 11 11 11 11 11 11 11 11 10 10 10 10 10 10 11 11 11 10 10 5 4 3 3 3 2 2 2
10 9 10 9 9 9 10 10 10 10 10 10 10 10 10 11 11 11 11 11 11 11 11 11 11 11 10 10 10 10 11 11 11 11 10 10 6 5 4 3 3 3 3
10 9 9 10 9 10 10 10 10 10 9 10 10 10 10 11 11 11 11 11 11 10 10 10 10 10 11 10 11 11 11 11 11 11 10 10 10 7 6 5 4 4 4
11 10 9 8 9 10 10 10 10 10 11 10 10 10 10 10 10 11 11 11 11 10 11 11 11 11 11 11 11 11 12 11 11 11 11 11 11 10 8 6 5 5 4
12 10 10 10 10 10 10 10 10 10 11 11 11 11 10 10 10 11 11 11 11 11 11 11 11 11 12 11 10 11 11 11 11 10 11 11 11 11 11 7 6 6 5
11 11 10 10 10 10 10 10 10 10 11 11 11 11 10 10 10 11 11 11 11 11 11 11 12 11 11 11 10 10 11 11 11 11 11 10 11 11 11 11 11 10 6
11 11 11 11 11 10 11 11 12 12 11 11 11 10 10 10 10 11 11 11 11 11 11 11 12 12 12 12 12 12 12 12 12 12 11 11 11 10 11 11 11 11 10
11 11 11 10 10 10 9 10 11 11 11 10 10 10 9 10 10 10 11 11 11 11 11 11 12 12 12 12 13 14 15 13 12 12 12 11 12 11 10 10 11 11 11
12 12 11 11 10 10 10 10 11 11 11 11 11 10 10 9 9 10 10 10 11 11 11 11 11 12 13 12 12 13 17 16 15 13 12 12 12 12 11 11 10 10 11
11 12 11 11 10 10 10 10 11 11 11 11 11 10 10 10 10 9 10 10 10 11 11 11 10 11 12 12 12 11 13 13 15 16 13 13 12 11 12 11 11 11 10
11 12 11 11 11 10 10 9 10 11 11 11 11 11 10 10 10 9 10 10 10 10 10 10 10 11 11 12 12 12 13 13 14 15 16 14 13 12 12 11 11 11 10
12 11 12 12 11 10 11 11 10 10 11 11 11 11 11 10 10 10 9 10 10 10 11 11 11 11 11 12 12 12 12 13 13 14 15 15 14 13 12 11 12 11 11